Probability
0 0 0 0 0 0 0 0 0 0 0 0 0 0 0 0 0 0 0 0 0 0 0 0 0 0 0 0 0 0 0 0 0 0 0 0 0 0 0 0 0 0 0 0
0 0 0 0 0 0 0 0 0 0 0 0 0 0 0 0 0 0 0 0 0 0 0 0 0 0 0 0 0 0 0 0 0 0 0 0 0 0 0 0 0 0 0 0
0 0 0 0 0 0 0 0 0 0 0 0 0 0 0 0 0 0 0 0 0 0 0 0 0 0 0 0 0 0 0 0 0 0 0 0 0 0 0 0 0 0 0 0
0 0 0 0 0 0 0 0 0 0 0 0 0 0 0 0 0 0 0 0 0 0 0 0 0 0 0 0 0 0 0 0 0 0 0 0 0 0 0 0 0 0 0 0
0 0 0 0 0 0 0 0 0 0 0 0 0 0 0 0 0 0 0 0 0 0 0 0 0 0 0 0 0 0 0 0 0 0 0 0 0 0 0 0 0 0 0 0
0 0 0 0 0 0 0 0 0 0 0 0 0 0 0 0 0 0 0 0 0 0 0 0 0 0 0 0 0 0 0 0 0 0 0 0 0 0 0 0 0 0 0 0
0 0 0 0 0 0 0 0 0 0 0 0 0 0 0 0 0 0 0 0 0 0 0 0 0 0 0 0 0 0 0 0 0 0 0 0 0 0 0 0 0 0 0 0
0 0 0 0 0 0 0 0 0 0 0 0 0 0 0 0 0 0 0 0 0 0 0 0 0 0 0 0 0 0 0 0 0 0 0 0 0 0 0 0 0 0 0 0
0 0 0 0 0 0 0 0 0 0 0 0 0 0 0 0 0 0 0 0 0 0 0 0 0 0 0 0 0 0 0 0 0 0 0 0 0 0 0 0 0 0 0 0
0 0 0 0 0 0 0 0 0 0 0 0 0 0 0 0 0 0 0 0 0 0 0 0 0 0 0 0 0 0 0 0 0 0 0 0 0 0 0 0 0 0 0 0
0 0 0 0 0 0 0 0 0 0 0 0 0 0 0 0 0 0 0 0 0 0 0 0 0 0 0 0 0 0 0 0 0 0 0 0 0 0 0 0 0 0 0 0
0 0 0 0 0 0 0 0 0 0 0 0 0 0 0 0 0 0 0 0 0 0 0 0 0 0 0 0 0 0 0 0 0 0 0 0 0 0 0 0 0 0 0 0
0 0 0 0 0 0 0 0 0 0 0 0 0 0 0 0 0 0 0 0 0 0 0 0 0 0 0 0 0 0 0 0 0 0 0 0 0 0 0 0 0 0 0 0
0 0 0 0 0 0 0 0 0 0 0 0 0 0 0 0 0 0 0 0 0 0 0 0 0 0 0 0 0 0 0 0 0 0 0 0 0 0 0 0 0 0 0 0
0 0 0 0 0 0 0 0 0 0 0 0 0 0 0 0 0 0 0 0 0 0 0 0 0 0 0 0 0 0 0 0 0 0 0 0 0 0 0 0 0 0 0 0
0 0 0 0 0 0 0 0 0 0 0 0 0 0 0 0 0 0 0 0 0 0 0 0 0 0 0 0 0 0 0 0 0 0 0 0 0 0 0 0 0 0 0 0
0 0 0 0 0 0 0 0 0 0 0 0 0 0 0 0 0 0 0 0 0 0 0 0 0 0 0 0 0 0 0 0 0 0 0 0 0 0 0 0 0 0 0 0
0 0 0 0 0 0 0 0 0 0 0 0 0 0 0 0 0 0 0 0 0 0 0 0 0 0 0 0 0 0 0 0 0 0 0 0 0 0 0 0 0 0 0 0
0 0 0 0 0 0 0 0 0 0 0 0 0 0 0 0 0 0 0 0 0 0 0 0 0 0 0 0 0 0 0 0 0 0 0 0 0 0 0 0 0 0 0 0
0 0 0 0 0 0 0 0 0 0 0 0 0 0 0 0 0 0 0 0 0 0 0 0 0 0 0 0 0 0 0 0 0 0 0 0 0 0 0 0 0 0 0 0
0 0 0 0 0 0 0 0 0 0 0 0 0 0 0 0 0 0 0 0 0 0 0 0 0 0 0 0 0 0 0 0 0 0 0 0 0 0 0 0 0 0 0 0
0 0 0 0 0 0 0 0 0 0 0 0 0 0 0 0 0 0 0 0 0 0 0 0 0 0 0 0 0 0 0 0 0 0 0 0 0 0 0 0 0 0 0 0
0 0 0 0 0 0 0 0 0 0 0 0 0 0 0 0 0 0 0 0 0 0 0 0 0 0 0 0 0 0 0 0 0 0 0 0 0 0 0 0 0 0 0 0
0 0 0 0 0 0 0 0 0 0 0 0 0 0 0 0 0 0 0 0 0 0 0 0 0 0 0 0 0 0 0 0 0 0 0 0 0 0 0 0 0 0 0 0
0 0 0 0 0 0 0 0 0 0 0 0 0 0 0 0 0 0 0 0 0 0 0 0 0 0 0 0 0 0 0 0 0 0 0 0 0 0 0 0 0 0 0 0
0 0 0 0 0 0 0 0 0 0 0 0 0 0 0 0 0 0 0 0 0 0 0 0 0 0 0 0 0 0 0 0 0 0 0 0 0 0 0 0 0 0 0 0
0 0 0 0 0 0 0 0 0 0 0 0 0 0 0 0 0 0 0 0 0 0 0 0 0 0 0 0 0 0 0 0 0 0 0 0 0 0 0 0 0 0 0 0
Height
5536 5535 5533 5532 5532 5531 5530 5530 5529 5530 5530 5531 5529 5529 5528 5528 5528 5528 5529 5530 5530 5530 5531 5531 5531 5532 5532 5533 5533 5534 5535 5536 5537 5538 5538 5540 5541 5543 5544 5546 5547 5547 5548 5549
5529 5527 5525 5524 5524 5523 5522 5521 5520 5521 5522 5521 5520 5519 5519 5518 5518 5519 5519 5520 5520 5520 5520 5520 5521 5521 5521 5521 5522 5522 5523 5524 5525 5525 5526 5527 5529 5531 5532 5534 5535 5536 5537 5538
5521 5519 5517 5517 5517 5515 5514 5513 5512 5512 5513 5511 5511 5510 5510 5509 5509 5509 5509 5509 5510 5510 5510 5510 5510 5510 5510 5510 5510 5511 5511 5512 5513 5513 5514 5515 5517 5519 5520 5522 5523 5524 5525 5526
5512 5511 5510 5512 5509 5507 5506 5505 5503 5502 5502 5502 5501 5501 5500 5500 5499 5499 5499 5499 5499 5499 5499 5499 5499 5499 5499 5499 5499 5500 5500 5501 5501 5502 5503 5504 5505 5506 5508 5510 5511 5512 5513 5514
5505 5502 5501 5503 5501 5499 5497 5497 5495 5494 5493 5492 5492 5492 5492 5491 5490 5490 5489 5489 5489 5489 5489 5489 5489 5488 5488 5489 5489 5489 5489 5489 5490 5490 5491 5492 5493 5494 5496 5498 5499 5500 5501 5502
5497 5495 5493 5496 5493 5490 5490 5488 5487 5485 5484 5483 5483 5483 5484 5481 5481 5480 5480 5479 5479 5479 5479 5478 5478 5478 5478 5478 5478 5478 5478 5478 5478 5479 5480 5480 5481 5482 5484 5485 5486 5487 5488 5489
5490 5487 5487 5487 5484 5483 5482 5482 5479 5477 5475 5474 5473 5473 5473 5471 5471 5470 5469 5469 5468 5468 5468 5468 5467 5468 5468 5467 5467 5467 5467 5467 5468 5468 5468 5469 5469 5470 5471 5472 5474 5475 5476 5477
5483 5481 5482 5479 5476 5475 5474 5472 5470 5468 5467 5466 5465 5464 5462 5461 5460 5460 5459 5459 5458 5458 5458 5457 5457 5457 5457 5457 5457 5456 5456 5456 5457 5457 5457 5457 5458 5458 5459 5460 5461 5462 5463 5464
5477 5476 5473 5470 5468 5466 5465 5463 5461 5459 5458 5457 5456 5455 5453 5452 5451 5450 5450 5449 5449 5448 5447 5447 5447 5446 5447 5446 5446 5446 5446 5446 5445 5445 5446 5446 5446 5447 5447 5448 5448 5449 5450 5451
5469 5467 5465 5462 5460 5458 5456 5454 5452 5451 5449 5448 5447 5446 5444 5443 5442 5441 5440 5439 5439 5438 5438 5437 5436 5436 5436 5436 5435 5435 5435 5435 5434 5434 5434 5434 5434 5435 5435 5436 5436 5437 5437 5438
5461 5459 5457 5454 5452 5450 5448 5446 5444 5442 5441 5439 5438 5437 5435 5434 5433 5432 5431 5430 5429 5429 5428 5427 5427 5426 5426 5425 5425 5425 5424 5424 5423 5423 5423 5423 5422 5423 5423 5424 5424 5425 5425 5426
5454 5451 5448 5447 5444 5442 5440 5438 5436 5434 5433 5431 5429 5428 5427 5425 5424 5423 5422 5421 5420 5419 5418 5418 5417 5417 5416 5415 5414 5414 5413 5413 5413 5412 5412 5411 5411 5412 5411 5412 5412 5413 5413 5414
5445 5443 5440 5438 5436 5434 5432 5430 5428 5426 5424 5423 5421 5419 5418 5417 5415 5414 5413 5411 5410 5410 5409 5408 5408 5407 5406 5405 5404 5403 5403 5402 5402 5402 5401 5401 5401 5401 5401 5401 5401 5401 5401 5401
5437 5435 5433 5430 5428 5426 5424 5422 5420 5418 5416 5414 5413 5411 5409 5408 5407 5405 5404 5403 5402 5400 5400 5399 5398 5397 5396 5395 5394 5393 5392 5392 5391 5391 5390 5390 5390 5390 5390 5390 5390 5390 5389 5389
5430 5427 5425 5423 5421 5418 5416 5414 5412 5411 5409 5407 5405 5403 5402 5400 5398 5397 5395 5394 5393 5392 5391 5390 5389 5388 5386 5385 5384 5383 5382 5381 5381 5380 5380 5380 5380 5380 5379 5379 5379 5379 5378 5378
5422 5420 5418 5415 5413 5411 5409 5407 5405 5403 5401 5399 5397 5396 5394 5392 5390 5388 5387 5385 5384 5383 5382 5381 5380 5379 5377 5376 5375 5374 5372 5371 5370 5370 5369 5369 5369 5368 5368 5368 5367 5367 5366 5366
5415 5413 5411 5408 5406 5404 5402 5399 5397 5395 5393 5391 5390 5388 5386 5384 5382 5380 5379 5377 5376 5374 5373 5372 5371 5370 5369 5367 5366 5365 5363 5362 5361 5360 5359 5358 5358 5357 5357 5356 5356 5355 5354 5354
5408 5406 5403 5401 5399 5397 5395 5392 5390 5388 5386 5384 5382 5380 5378 5376 5374 5373 5371 5369 5368 5366 5365 5364 5362 5361 5360 5358 5357 5355 5354 5353 5351 5350 5349 5348 5347 5347 5346 5345 5344 5343 5343 5342
5400 5398 5396 5394 5392 5390 5388 5385 5383 5381 5379 5377 5375 5373 5370 5369 5367 5365 5363 5361 5360 5358 5357 5355 5354 5352 5351 5349 5348 5346 5345 5343 5342 5340 5339 5338 5337 5336 5335 5334 5333 5332 5331 5331
5393 5391 5389 5387 5385 5383 5381 5378 5376 5374 5372 5369 5367 5365 5363 5361 5360 5358 5356 5354 5352 5350 5348 5347 5345 5343 5342 5340 5338 5337 5335 5334 5332 5331 5329 5328 5327 5325 5324 5323 5322 5321 5320 5319
5387 5385 5383 5380 5378 5376 5374 5371 5369 5367 5364 5362 5360 5358 5356 5354 5352 5350 5348 5347 5345 5342 5340 5339 5337 5335 5333 5331 5329 5327 5326 5324 5322 5320 5319 5317 5316 5315 5313 5312 5311 5310 5309 5308
5380 5378 5376 5373 5371 5369 5366 5364 5362 5359 5357 5355 5352 5351 5349 5347 5345 5343 5341 5339 5337 5334 5332 5330 5328 5326 5324 5322 5320 5318 5316 5314 5312 5310 5308 5307 5305 5304 5303 5301 5300 5299 5298 5297
5373 5371 5368 5366 5364 5361 5359 5357 5354 5352 5350 5347 5345 5343 5341 5339 5337 5335 5333 5331 5328 5326 5324 5322 5319 5317 5315 5313 5311 5308 5306 5304 5301 5299 5298 5296 5294 5293 5292 5291 5289 5288 5287 5286
5366 5364 5361 5359 5356 5354 5351 5349 5347 5344 5342 5340 5337 5335 5333 5331 5329 5327 5324 5322 5320 5317 5315 5312 5310 5308 5305 5303 5301 5298 5296 5294 5291 5289 5287 5285 5284 5282 5281 5280 5279 5278 5277 5276
5359 5356 5354 5351 5348 5346 5343 5341 5339 5336 5334 5332 5329 5327 5325 5323 5320 5318 5316 5313 5311 5308 5306 5303 5301 5298 5295 5293 5290 5288 5286 5283 5281 5279 5277 5275 5273 5272 5270 5269 5268 5267 5267 5266
5351 5349 5346 5343 5341 5338 5336 5333 5331 5328 5326 5323 5321 5318 5316 5313 5311 5309 5306 5304 5301 5299 5296 5294 5291 5288 5285 5282 5280 5277 5275 5273 5270 5268 5267 5265 5263 5262 5260 5259 5258 5257 5256 5255
5344 5341 5338 5335 5333 5330 5327 5325 5322 5320 5317 5314 5312 5309 5307 5304 5302 5299 5297 5294 5292 5289 5286 5283 5280 5277 5275 5272 5269 5267 5264 5262 5260 5258 5256 5255 5253 5252 5250 5249 5248 5246 5245 5245
Wind_Speed
30 30 29 30 30 30 32 33 33 33 33 33 34 34 35 35 35 36 36 35 36 36 36 37 38 39 40 41 42 42 44 44 44 44 44 44 44 44 44 44 44 43 44 44
30 29 30 30 30 31 32 33 33 33 32 31 32 33 34 34 35 35 36 36 35 35 36 37 38 38 39 40 41 41 42 43 44 43 44 44 44 45 45 45 44 44 44 44
31 30 30 30 28 29 31 32 33 33 32 32 32 32 32 33 34 35 35 36 36 36 36 37 38 38 38 39 39 40 41 41 42 42 43 44 45 45 45 45 44 43 43 43
32 31 31 29 29 29 30 31 32 33 32 31 32 32 33 33 33 33 34 34 35 35 36 36 37 38 38 39 38 38 39 40 41 42 42 43 44 44 44 45 44 44 43 44
31 32 32 29 29 30 30 30 31 32 32 32 31 31 33 34 34 33 34 34 33 34 35 36 37 37 38 38 38 38 38 39 40 41 42 42 43 44 44 44 44 44 43 44
30 32 32 30 30 30 30 29 29 30 31 32 32 32 31 32 33 33 34 34 34 34 34 35 36 36 36 37 37 37 38 39 39 40 41 42 43 44 44 45 44 44 44 44
31 31 31 30 31 31 31 30 29 30 30 30 30 31 31 31 32 32 33 33 34 35 35 35 35 36 36 36 36 37 37 38 38 39 39 40 41 42 43 44 44 44 44 44
30 31 30 30 31 32 31 31 30 31 31 31 31 31 31 31 32 32 32 32 33 33 34 35 35 35 36 36 37 37 37 38 39 39 40 40 41 41 42 42 43 43 43 44
30 31 30 30 31 32 32 31 31 32 32 32 31 31 31 31 32 32 32 32 32 32 32 33 33 34 35 35 36 37 38 38 38 38 39 40 41 42 42 42 42 41 42 42
30 29 30 31 31 31 31 31 31 32 31 31 31 30 30 30 31 31 32 32 32 32 32 32 33 33 35 35 36 35 36 37 37 38 38 38 39 40 40 41 40 40 40 41
29 30 30 31 32 31 30 30 30 31 31 30 30 30 30 30 31 31 31 32 32 32 32 32 32 32 33 34 35 35 35 35 35 35 36 36 37 37 38 39 40 39 40 40
29 30 31 30 30 30 29 29 30 30 30 30 30 29 29 30 30 31 31 31 31 31 31 31 31 31 32 33 34 35 35 35 34 34 34 34 35 36 37 38 39 40 39 39
30 30 30 29 29 29 29 29 30 30 29 29 29 29 29 30 30 30 30 30 30 31 31 31 31 31 32 32 33 34 35 35 35 34 34 34 35 35 35 36 37 38 38 39
30 29 28 28 28 28 27 28 29 29 28 27 28 28 29 29 29 30 30 30 30 31 31 31 31 31 31 32 32 32 33 33 34 34 34 34 34 35 35 36 36 37 38 38
29 29 28 27 27 27 27 27 27 27 27 27 27 27 27 28 28 28 28 29 29 30 30 31 31 30 31 31 31 31 32 32 33 33 34 34 34 34 35 35 36 37 37 38
28 28 27 26 26 26 26 26 26 26 26 27 27 27 27 27 27 27 27 28 28 29 29 29 29 29 29 29 29 30 31 31 32 33 33 34 34 35 35 36 36 37 37 38
28 27 26 26 26 25 24 25 25 25 25 26 26 26 27 27 27 27 27 27 27 27 27 27 27 28 28 29 28 29 29 30 31 31 32 33 33 34 34 35 35 36 37 38
27 26 25 25 24 24 24 24 24 24 25 25 25 25 26 26 26 26 26 26 26 26 26 26 27 27 28 29 29 29 29 29 29 30 30 31 32 32 33 33 34 35 36 36
26 26 25 24 24 24 23 23 23 24 24 25 25 25 24 24 24 25 25 25 25 25 26 26 27 27 28 28 28 28 29 29 29 29 30 30 31 32 32 33 33 34 34 35
25 24 24 24 24 24 24 23 23 24 24 24 24 24 24 24 24 24 24 25 25 25 25 26 27 27 27 28 28 28 29 29 30 31 31 32 32 32 33 33 33 34 34 34
24 24 24 24 24 24 24 24 24 24 24 25 24 24 24 24 24 24 24 24 24 25 25 26 26 27 27 28 29 29 30 31 31 32 32 33 33 33 33 33 33 33 33 33
24 24 24 24 24 24 24 24 24 24 24 24 24 24 24 24 24 24 25 25 25 26 26 26 27 27 28 28 29 30 31 31 32 32 33 33 33 33 33 33 32 33 33 33
24 24 24 25 25 25 25 25 24 24 24 24 24 24 25 25 25 26 26 27 27 28 28 28 28 29 29 30 30 31 31 31 32 32 32 32 32 32 32 32 32 32 32 32
24 24 25 25 25 25 25 25 25 25 25 25 25 26 26 26 26 27 27 28 28 29 29 29 30 30 31 31 31 32 32 32 32 32 31 31 31 31 31 31 30 30 31 31
25 25 26 25 25 25 25 25 25 26 26 26 27 27 27 28 28 28 29 29 30 30 30 30 30 31 31 32 32 32 32 32 32 31 30 30 29 29 29 30 30 30 30 30
26 26 26 25 25 26 26 26 26 27 27 27 28 28 28 29 29 29 30 30 30 30 30 31 31 32 32 32 32 32 32 31 31 31 30 29 29 28 28 29 29 30 30 30
26 26 26 26 26 27 27 28 28 28 28 29 29 29 30 30 30 30 30 30 31 31 32 32 33 32 32 32 32 31 31 30 30 29 29 28 28 28 28 28 29 29 30 30
Wind_Direction
281 282 282 281 277 273 272 274 275 276 274 274 274 274 273 272 270 267 265 265 265 264 263 263 262 262 262 261 260 259 259 259 260 260 260 260 259 259 259 260 262 263 264 263
283 282 283 283 280 276 274 274 274 274 274 273 273 273 273 272 270 269 267 266 266 265 263 263 263 262 262 262 261 261 261 260 260 260 260 260 260 260 259 260 262 263 263 263
285 284 284 284 284 280 277 276 276 275 275 274 273 274 273 271 270 268 268 267 267 266 265 264 264 263 263 263 263 262 262 261 261 261 261 261 261 261 260 260 262 263 263 264
287 286 286 288 285 284 282 280 278 276 276 275 274 272 272 271 270 269 267 266 267 267 265 265 265 264 264 264 263 263 263 262 262 262 262 262 262 262 261 260 261 263 264 264
288 288 288 287 286 287 287 284 281 280 278 276 276 275 274 272 270 269 268 267 267 267 266 265 265 265 265 264 263 262 263 263 263 262 262 261 261 261 261 261 262 264 263 263
289 289 289 289 286 287 289 286 284 283 282 279 279 278 276 274 272 269 268 268 267 267 267 267 266 266 265 264 263 263 263 263 263 263 262 262 262 262 261 261 263 263 262 264
290 290 289 289 288 287 287 287 285 283 283 281 281 280 278 276 274 272 271 270 269 268 268 268 267 266 266 265 264 263 264 264 264 264 265 264 264 263 262 263 264 263 263 263
290 290 290 289 287 286 286 286 285 282 282 282 282 280 279 277 276 275 274 274 273 271 270 270 269 268 267 266 265 265 265 265 265 265 265 265 265 264 265 265 266 266 265 265
289 290 290 288 288 287 286 285 285 283 282 282 281 279 278 277 276 275 274 274 274 272 271 270 269 268 267 267 266 266 267 267 267 267 268 267 267 266 266 267 267 267 266 266
292 291 289 288 288 288 287 286 284 284 283 282 280 278 277 278 277 276 275 274 273 271 270 271 270 269 269 268 269 269 269 269 269 270 270 269 269 268 267 266 266 267 267 267
292 292 289 287 288 288 287 287 285 283 283 283 282 280 278 278 277 276 276 275 274 273 272 272 272 271 271 270 270 270 270 269 269 270 271 270 269 268 267 266 265 266 267 267
294 293 290 288 287 286 286 286 286 284 283 282 281 280 279 278 278 277 276 275 275 275 274 273 273 274 273 273 272 272 271 270 270 271 270 270 269 268 267 267 267 267 268 268
294 293 291 289 288 287 286 286 286 285 285 284 284 282 281 281 280 279 278 277 275 275 275 275 276 276 276 276 274 273 271 271 271 271 271 271 270 269 269 269 269 270 269 269
296 295 293 291 290 289 288 288 288 287 287 286 286 285 284 282 280 279 278 277 277 276 276 276 277 278 278 277 275 274 273 273 273 272 272 272 272 271 271 270 270 270 270 269
295 295 294 293 293 292 290 290 289 288 287 287 286 285 285 284 283 282 281 280 279 279 278 277 277 279 279 278 277 275 274 273 273 272 272 273 273 273 273 272 271 271 270 270
295 295 294 293 294 294 293 291 289 288 288 287 287 286 286 286 285 285 284 283 282 281 279 279 278 279 279 280 280 278 276 275 274 273 273 273 273 274 274 274 273 272 271 271
294 295 293 293 294 295 294 292 291 290 290 289 288 288 287 286 286 285 285 285 284 283 281 280 280 281 282 282 283 282 281 279 277 275 275 274 275 275 275 275 274 274 273 272
295 294 293 294 295 295 295 293 292 291 291 290 290 289 288 288 287 287 287 286 285 284 282 282 282 283 285 285 285 285 284 282 280 279 277 276 276 276 276 276 275 275 274 274
295 294 294 296 297 297 296 295 295 294 293 292 291 290 290 290 289 289 289 288 286 285 284 283 284 285 286 285 285 286 285 284 282 281 280 279 279 278 278 277 277 276 275 275
295 294 296 296 297 297 297 296 295 296 295 294 291 291 290 290 290 290 289 289 288 288 287 287 286 287 286 286 286 286 286 285 283 282 282 281 280 279 279 278 278 277 276 276
296 296 297 297 297 297 297 296 296 296 296 294 291 290 290 290 290 290 290 290 290 290 290 290 290 289 288 288 289 288 287 286 284 283 282 282 281 280 279 279 278 278 277 277
297 297 297 296 297 297 297 297 296 295 296 295 293 290 290 290 291 291 292 292 292 292 292 292 291 291 291 291 291 291 290 288 286 285 283 282 281 281 280 279 279 278 277 277
299 298 297 297 297 296 296 296 295 295 295 295 294 292 291 291 291 292 293 293 293 293 293 292 291 291 291 292 292 292 292 291 290 288 286 284 282 281 280 279 278 278 277 277
301 300 299 298 296 295 295 295 295 295 294 294 293 292 292 292 291 292 293 294 294 293 293 293 292 292 292 292 292 292 292 292 291 290 288 286 284 282 280 279 278 278 278 278
303 301 299 298 297 296 296 296 296 295 294 294 294 293 292 292 292 292 292 293 293 293 293 293 293 293 293 293 292 292 291 291 290 289 288 286 285 283 281 279 278 277 277 278
303 302 301 299 298 297 296 296 296 296 295 294 294 293 293 293 293 292 292 292 292 293 293 294 294 295 294 294 293 292 291 291 289 288 287 286 285 283 282 280 279 278 278 278
303 302 302 300 299 297 297 296 296 296 295 294 294 293 292 292 293 293 293 292 293 293 294 294 294 294 294 293 293 292 291 290 289 288 286 285 284 283 283 282 281 279 279 279